Regional Weather Roundup
Issued by NWS

Home | Current Version | Previous Version | Graphics & Text | Print | Product List | Glossary On
Versions: 1 2 3 4 5 6 7 8 9 10 11 12 13 14 15 16 17 18 19 20 21 22 23 24 25 26 27 28 29 30 31 32 33 34 35 36 37 38 39 40 41 42 43 44 45 46 47 48 49 50
726
ASUS44 KJAN 251903
RWRMS

MISSISSIPPI HOURLY WEATHER ROUNDUP
NATIONAL WEATHER SERVICE JACKSON MS
100 PM CST SUN JAN 25 2015

NOTE: "FAIR: INDICATES FEW OR NO CLOUDS BELOW 12,000 FEET WITH NO
SIGNIFICANT WEATHER AND/OR OBSTRUCTIONS TO VISIBILITY.

MSZ001>002-007>008-010>013-018>021-025>028-034>036-252000-
NORTHWEST MISSISSIPPI

CITY           SKY/WX    TMP DP  RH WIND       PRES   REMARKS
CLARKSDALE     FAIR      55  43  62 W15G21    29.73F
CLEVELAND      FAIR      56  46  68 SW12G17   29.74F
GREENWOOD      CLOUDY    56  40  55 SW16G25   29.75F
GREENVILLE     SUNNY     60  42  51 SW13      29.75F
GRENADA        CLOUDY    55  41  58 SW9       29.74F
OLIVE BRANCH   MOSUNNY   52  45  76 SW12G20   29.68F
OXFORD         PTSUNNY   48  39  71 W10G16    29.74F
TUNICA         CLEAR     55  41  58 W14       29.72F
$$

MSZ003>006-009-014>017-022>024-029>033-037>039-252000-
NORTHEAST MISSISSIPPI

CITY           SKY/WX    TMP DP  RH WIND       PRES   REMARKS
COLUMBUS AFB   MOSUNNY   61  37  41 SW16G22   29.74F
CORINTH        CLOUDY    55  37  50 SW13G18   29.68F
GOLDN TRIANGLE MOSUNNY   61  39  44 SW14G23   29.75F
STARKVILLE     MOCLDY    61  39  44 W8G23     29.74F
TUPELO         PTSUNNY   59  37  44 W12G23    29.71F
$$

MSZ040-058-252000-
CENTRAL MISSISSIPPI

CITY           SKY/WX    TMP DP  RH WIND       PRES   REMARKS
JACKSON INTL   MOSUNNY   65  37  35 W15G31    29.79F
JACKSON HAWKNS SUNNY     64  37  36 SW23G29   29.79F
MERIDIAN KEY   SUNNY     62  38  40 SW15G25   29.80F
MERIDIAN NAS   SUNNY     63  36  36 SW13G22   29.79F
RAYMOND        FAIR      64  59  82 W16G22    29.80F
VICKSBURG      SUNNY     64  42  44 VRB7G21   29.81F
$$

MSZ059>079-252000-
SOUTH MISSISSIPPI

CITY           SKY/WX    TMP DP  RH WIND       PRES   REMARKS
BROOKHAVEN     FAIR      64  39  39 SW15G22   29.85F
HATTIESBURG    SUNNY     64  38  38 SW13G22   29.87F
MCCOMB         SUNNY     65  38  36 SW10G21   29.87F
NATCHEZ        SUNNY     64  43  45 SW18G26   29.85F
PINE BELT      SUNNY     63  39  42 SW9G21    29.86F
$$

MSZ080>082-252000-
COASTAL MISSISSIPPI

CITY           SKY/WX    TMP DP  RH WIND       PRES   REMARKS
BAY ST LOUIS   SUNNY     63  32  31 W12G21    29.94F
BILOXI         SUNNY     60  44  54 SW18      29.93F
PASCAGOULA     SUNNY     60  41  49 SW9G24    29.93F
GULFPORT       SUNNY     60  41  49 S13G20    29.93F
$$



USA.gov is the U.S. government's official web portal to all federal, state and local government web resources and services.